When you browse on this site, cookies collect data to enhance your experience and personalize the content and advertising you see.
Visit our Privacy Policy to learn more. By continuing to use the site, you agree to this use of cookies and data.
  • Em Portugal
  • Lista de países
  • Para 7 dias
  • Temperatura da água
  • Mapa do tempo
  • Widgets de tempo
  • user-avatar
    Iniciar Sessão

    Previsão horária em Marino

    Hoje, 26 Agosto, Segunda-feira

    Tempo Temperatura Precipitação Vento Pressão Humidade
    00:00 +11°C° 0 mm 1 m/s 758 mmHg 95%
    01:00 +11°C° 0 mm 1 m/s 758 mmHg 95%
    02:00 +11°C° 0 mm 1 m/s 758 mmHg 96%
    03:00 +11°C° 0 mm 1 m/s 758 mmHg 96%
    04:00 +11°C° 0 mm 1 m/s 758 mmHg 96%
    05:00 +11°C° 0 mm 1 m/s 758 mmHg 96%
    06:00 +13°C° 0 mm 2 m/s 757 mmHg 89%
    07:00 +15°C° 0 mm 2 m/s 757 mmHg 82%
    08:00 +16°C° 0 mm 2 m/s 757 mmHg 74%
    09:00 +18°C° 0 mm 2 m/s 757 mmHg 69%
    10:00 +19°C° 0 mm 3 m/s 756 mmHg 64%
    11:00 +21°C° 0 mm 3 m/s 756 mmHg 58%
    12:00 +21°C° 0 mm 3 m/s 756 mmHg 57%
    13:00 +22°C° 0 mm 3 m/s 755 mmHg 56%
    14:00 +22°C° 0 mm 3 m/s 755 mmHg 55%
    15:00 +22°C° 0 mm 3 m/s 754 mmHg 60%
    16:00 +21°C° 0 mm 3 m/s 754 mmHg 65%
    17:00 +20°C° 0 mm 2 m/s 753 mmHg 70%
    18:00 +19°C° 0 mm 2 m/s 753 mmHg 74%
    19:00 +18°C° 0 mm 2 m/s 752 mmHg 78%
    20:00 +17°C° 0 mm 3 m/s 752 mmHg 82%
    21:00 +17°C° 0 mm 3 m/s 752 mmHg 81%
    22:00 +17°C° 0 mm 3 m/s 752 mmHg 80%
    23:00 +17°C° 0 mm 3 m/s 751 mmHg 80%

    Amanhã, 27 Agosto, Terça-feira

    Tempo Temperatura Precipitação Vento Pressão Humidade
    00:00 +17°C° 0 mm 3 m/s 751 mmHg 82%
    01:00 +17°C° 0 mm 3 m/s 751 mmHg 84%
    02:00 +16°C° 0 mm 3 m/s 751 mmHg 87%
    03:00 +16°C° 0 mm 3 m/s 751 mmHg 90%
    04:00 +14°C° 0 mm 3 m/s 751 mmHg 93%
    05:00 +14°C° 0 mm 3 m/s 751 mmHg 96%
    06:00 +16°C° 0 mm 3 m/s 751 mmHg 88%
    07:00 +17°C° 0 mm 4 m/s 752 mmHg 79%
    08:00 +18°C° 0 mm 4 m/s 752 mmHg 70%
    09:00 +19°C° 0 mm 4 m/s 752 mmHg 65%
    10:00 +19°C° 0 mm 4 m/s 752 mmHg 60%
    11:00 +20°C° 0 mm 4 m/s 752 mmHg 55%
    12:00 +21°C° 0 mm 5 m/s 752 mmHg 55%
    13:00 +21°C° 0 mm 5 m/s 753 mmHg 55%
    14:00 +21°C° 0 mm 5 m/s 753 mmHg 54%
    15:00 +21°C° 0 mm 4 m/s 753 mmHg 58%
    16:00 +20°C° 0 mm 3 m/s 753 mmHg 61%
    17:00 +19°C° 0 mm 3 m/s 753 mmHg 65%
    18:00 +17°C° 0 mm 3 m/s 753 mmHg 72%
    19:00 +15°C° 0 mm 2 m/s 754 mmHg 79%
    20:00 +14°C° 0 mm 2 m/s 754 mmHg 86%
    21:00 +13°C° 0 mm 2 m/s 754 mmHg 89%
    22:00 +12°C° 0 mm 2 m/s 755 mmHg 91%
    23:00 +10°C° 0 mm 2 m/s 755 mmHg 94%

    Depois de amanhã, 28 Agosto, Quarta-feira

    Tempo Temperatura Precipitação Vento Pressão Humidade
    00:00 +9°C° 0 mm 2 m/s 755 mmHg 94%
    01:00 +9°C° 0 mm 2 m/s 756 mmHg 95%
    02:00 +8°C° 0 mm 2 m/s 756 mmHg 95%
    03:00 +8°C° 0 mm 2 m/s 756 mmHg 95%
    04:00 +8°C° 0 mm 2 m/s 756 mmHg 95%
    05:00 +7°C° 0 mm 2 m/s 756 mmHg 94%
    06:00 +9°C° 0 mm 2 m/s 757 mmHg 86%
    07:00 +12°C° 0 mm 2 m/s 757 mmHg 77%
    08:00 +12°C° 0 mm 3 m/s 758 mmHg 68%
    09:00 +13°C° 0 mm 3 m/s 757 mmHg 61%
    10:00 +14°C° 0 mm 3 m/s 757 mmHg 53%
    11:00 +17°C° 0 mm 3 m/s 757 mmHg 46%
    12:00 +17°C° 0 mm 3 m/s 757 mmHg 44%
    13:00 +18°C° 0 mm 3 m/s 757 mmHg 42%
    14:00 +18°C° 0 mm 3 m/s 757 mmHg 40%
    15:00 +17°C° 0 mm 2 m/s 757 mmHg 46%
    16:00 +17°C° 0 mm 2 m/s 757 mmHg 52%
    17:00 +16°C° 0 mm 1 m/s 757 mmHg 57%
    18:00 +14°C° 0 mm 1 m/s 757 mmHg 61%
    19:00 +13°C° 0 mm 1 m/s 757 mmHg 65%
    20:00 +11°C° 0 mm 1 m/s 758 mmHg 68%
    21:00 +9°C° 0 mm 0 m/s 758 mmHg 69%
    22:00 +9°C° 0 mm 0 m/s 758 mmHg 70%
    23:00 +9°C° 0 mm 0 m/s 758 mmHg 71%

    29 Agosto, Quinta-feira

    Tempo Temperatura Precipitação Vento Pressão Humidade
    00:00 +8°C° 0 mm 0 m/s 758 mmHg 71%
    01:00 +9°C° 0 mm 1 m/s 758 mmHg 71%
    02:00 +9°C° 0 mm 1 m/s 758 mmHg 71%
    03:00 +9°C° 0 mm 1 m/s 758 mmHg 72%
    04:00 +9°C° 0 mm 1 m/s 758 mmHg 73%
    05:00 +9°C° 0 mm 1 m/s 758 mmHg 73%
    06:00 +11°C° 0 mm 1 m/s 758 mmHg 69%
    07:00 +13°C° 0 mm 2 m/s 758 mmHg 65%
    08:00 +15°C° 0 mm 2 m/s 757 mmHg 60%
    09:00 +17°C° 0 mm 2 m/s 757 mmHg 57%
    10:00 +18°C° 0 mm 2 m/s 757 mmHg 54%
    11:00 +20°C° 0 mm 2 m/s 757 mmHg 51%
    12:00 +21°C° 0 mm 2 m/s 757 mmHg 50%
    13:00 +23°C° 0 mm 2 m/s 756 mmHg 50%
    14:00 +23°C° 0 mm 2 m/s 756 mmHg 49%
    15:00 +23°C° 0 mm 2 m/s 755 mmHg 55%
    16:00 +22°C° 0 mm 1 m/s 755 mmHg 60%
    17:00 +21°C° 0 mm 1 m/s 755 mmHg 65%
    18:00 +20°C° 0 mm 1 m/s 755 mmHg 70%
    19:00 +17°C° 0 mm 2 m/s 755 mmHg 76%
    20:00 +15°C° 0 mm 2 m/s 754 mmHg 81%
    21:00 +14°C° 0 mm 2 m/s 754 mmHg 82%
    22:00 +13°C° 0 mm 2 m/s 754 mmHg 83%
    23:00 +13°C° 0 mm 2 m/s 754 mmHg 84%

    30 Agosto, Sexta-feira

    Tempo Temperatura Precipitação Vento Pressão Humidade
    00:00 +13°C° 0 mm 2 m/s 754 mmHg 84%
    01:00 +12°C° 0 mm 2 m/s 754 mmHg 84%
    02:00 +12°C° 0 mm 2 m/s 754 mmHg 84%
    03:00 +12°C° 0 mm 2 m/s 754 mmHg 84%
    04:00 +12°C° 0 mm 2 m/s 753 mmHg 83%
    05:00 +12°C° 0 mm 2 m/s 753 mmHg 83%
    06:00 +13°C° 0 mm 2 m/s 753 mmHg 79%
    07:00 +15°C° 0 mm 1 m/s 754 mmHg 74%
    08:00 +16°C° 0 mm 1 m/s 754 mmHg 69%
    09:00 +19°C° 0 mm 1 m/s 754 mmHg 64%
    10:00 +21°C° 0 mm 1 m/s 754 mmHg 58%
    11:00 +21°C° 0 mm 0 m/s 754 mmHg 52%
    12:00 +23°C° 0 mm 1 m/s 754 mmHg 51%
    13:00 +23°C° 0 mm 1 m/s 753 mmHg 50%
    14:00 +23°C° 0 mm 1 m/s 753 mmHg 49%
    15:00 +23°C° 0 mm 1 m/s 753 mmHg 54%
    16:00 +22°C° 0 mm 1 m/s 753 mmHg 60%
    17:00 +21°C° 0 mm 1 m/s 752 mmHg 65%
    18:00 +19°C° 0 mm 1 m/s 752 mmHg 71%
    19:00 +16°C° 0 mm 1 m/s 752 mmHg 76%
    20:00 +15°C° 0 mm 1 m/s 752 mmHg 82%
    21:00 +14°C° 0 mm 1 m/s 752 mmHg 84%
    22:00 +13°C° 0 mm 1 m/s 752 mmHg 85%
    23:00 +13°C° 0 mm 1 m/s 752 mmHg 87%

    31 Agosto, Sábado

    Tempo Temperatura Precipitação Vento Pressão Humidade
    00:00 +12°C° 0 mm 1 m/s 752 mmHg 88%
    01:00 +12°C° 0 mm 1 m/s 752 mmHg 89%
    02:00 +12°C° 0 mm 1 m/s 752 mmHg 90%
    03:00 +11°C° 0 mm 1 m/s 752 mmHg 89%
    04:00 +11°C° 0 mm 1 m/s 752 mmHg 89%
    05:00 +11°C° 0 mm 1 m/s 752 mmHg 89%
    06:00 +13°C° 0 mm 1 m/s 752 mmHg 83%
    07:00 +14°C° 0 mm 1 m/s 751 mmHg 78%
    08:00 +16°C° 0 mm 1 m/s 751 mmHg 72%
    09:00 +19°C° 0 mm 1 m/s 751 mmHg 66%
    10:00 +20°C° 0 mm 1 m/s 751 mmHg 59%
    11:00 +21°C° 0 mm 2 m/s 751 mmHg 53%
    12:00 +21°C° 0 mm 2 m/s 751 mmHg 52%
    13:00 +23°C° 0 mm 2 m/s 750 mmHg 50%
    14:00 +24°C° 0 mm 2 m/s 750 mmHg 49%
    15:00 +23°C° 0 mm 1 m/s 750 mmHg 55%
    16:00 +22°C° 0 mm 1 m/s 750 mmHg 61%
    17:00 +22°C° 0 mm 1 m/s 750 mmHg 67%
    18:00 +20°C° 0 mm 1 m/s 750 mmHg 73%
    19:00 +18°C° 0 mm 1 m/s 750 mmHg 78%
    20:00 +16°C° 0 mm 1 m/s 749 mmHg 84%
    21:00 +15°C° 0 mm 1 m/s 750 mmHg 85%
    22:00 +15°C° 0 mm 1 m/s 750 mmHg 86%
    23:00 +14°C° 0 mm 2 m/s 750 mmHg 87%
    Mostrar mais